[[{"header":{"parameterUnit":"m.s-1","parameterCategory":1,"la1":30.2992,"la2":30.254,"lo1":-89.0895,"lo2":-89.0443,"dy":0.0025,"dx":0.0025,"nx":19,"ny":19,"refTime":"2026-05-18T21:00:00:Z","depth":0,"parameterNumber":2,"parameterNumberName":"U-component_of_WINDS"},"data":[0,0,0,-4.6909,-4.6911,-4.6986,-4.6986,-4.709,-4.7091,0,0,0,0,0,0,0,0,0,0,0,-4.689,-4.6891,-4.6909,-4.6911,-4.6986,-4.6986,-4.709,-4.7091,0,0,0,0,0,0,0,0,0,0,0,-4.689,-4.6891,-4.6892,-4.6911,-4.6986,-4.6986,-4.709,-4.7031,0,0,0,0,0,0,0,0,0,0,-4.6957,-4.6941,-4.6891,-4.6892,-4.6912,-4.6986,-4.6986,-4.7028,-4.7035,-4.7059,0,-4.7081,0,-4.7088,-4.7099,-4.7099,0,0,0,-4.6909,-4.6936,-4.6953,-4.6892,-4.6913,-4.6986,-4.6952,-4.7032,-4.7039,-4.7068,-4.7082,-4.7086,-4.7089,-4.7099,-4.71,-4.7246,-4.7247,0,0,-4.6905,-4.6905,-4.6948,-4.6958,-4.6945,-4.6949,-4.6954,-4.7036,-4.7052,-4.7082,-4.7088,-4.7091,-4.71,-4.7101,-4.7245,-4.7246,0,0,0,-4.6895,-4.6903,-4.6918,-4.6954,-4.6967,-4.6952,-4.6957,-4.7048,-4.7053,-4.7089,-4.7092,-4.7101,-4.7102,-4.7244,-4.7245,-4.7282,0,0,0,-4.6892,-4.6896,-4.6916,-4.6917,-4.6966,-4.7008,-4.6967,-4.7047,-4.7056,-4.7092,-4.7101,-4.7103,-4.7243,-4.7245,-4.7279,-4.7298,0,0,0,-4.6884,-4.6895,-4.6907,-4.6917,-4.6949,-4.7007,-4.7016,-4.7049,-4.7059,-4.7099,-4.7103,-4.7243,-4.7245,-4.7276,-4.7294,-4.7335,0,0,0,-4.6876,-4.6939,-4.6908,-4.698,-4.6949,-4.7029,-4.7016,-4.7076,-4.7115,-4.7101,-4.7243,-4.7245,-4.7275,-4.7291,-4.7332,-4.7368,-4.7383,0,0,-4.6956,-4.6949,-4.6991,-4.6966,-4.7051,-4.7018,-4.711,-4.7146,-4.7151,-4.7214,-4.7218,-4.728,-4.7293,-4.7334,-4.7474,-4.7486,0,0,0,-4.7017,-4.7047,-4.707,-4.7106,-4.7136,-4.7163,-4.7185,-4.7199,-4.7253,-4.7183,-4.7307,-4.7316,-4.734,-4.7356,-4.7367,-4.7387,-4.7254,-4.7254,-4.7253,-4.7127,-4.7129,-4.72,-4.7212,-4.7249,-4.7272,-4.7303,-4.7326,-4.7318,-4.7348,-4.7365,-4.745,-4.747,-4.7477,-4.7498,-4.7387,-4.7387,-4.7387,-4.7387,-4.7241,-4.7284,-4.7274,-4.7337,-4.7341,-4.7396,-4.7423,-4.7416,-4.7469,-4.7436,-4.7458,-4.7419,-4.7491,-4.7509,-4.739,-4.739,-4.7389,-4.7389,-4.7389,-4.7311,-4.7332,-4.7348,-4.7403,-4.7446,-4.7458,-4.7509,-4.7511,-4.7514,-4.7536,-4.7554,-4.7553,-4.7551,-4.7545,-4.7545,-4.7546,-4.7546,-4.7546,-4.7546,-4.7375,-4.7393,-4.7434,-4.7473,-4.7497,-4.7531,-4.7559,-4.7584,-4.7613,-4.761,-4.7611,-4.76,-4.7498,-4.747,-4.7551,-4.755,-4.7549,-4.7549,-4.7549,-4.7485,-4.7461,-4.7524,-4.755,-4.7596,-4.7639,-4.7643,-4.7695,-4.7717,-4.7742,-4.7729,-4.7654,-4.7646,-4.7638,-4.7615,-4.7728,-4.7728,-4.7728,-4.7728,-4.7541,-4.7539,-4.7605,-4.7645,-4.7685,-4.7696,-4.777,-4.7794,-4.7815,-4.7829,-4.7814,-4.7786,-4.7777,-4.7775,-4.7764,-4.7742,-4.7885,-4.7885,-4.7886,-4.7608,-4.761,-4.767,-4.7689,-4.7727,-4.776,-4.7829,-4.7878,-4.7897,-4.7892,-4.784,-4.7833,-4.7787,-4.7773,-4.7761,-4.7744,-4.7704,0,0]},{"header":{"parameterUnit":"m.s-1","parameterCategory":1,"la1":30.2992,"la2":30.254,"lo1":-89.0895,"lo2":-89.0443,"dy":0.0025,"dx":0.0025,"nx":19,"ny":19,"refTime":"2026-05-18T21:00:00:Z","depth":0,"parameterNumber":3,"parameterNumberName":"V-component_of_WINDS"},"data":[0,0,0,3.7824,3.7823,3.7777,3.7777,3.77,3.7699,0,0,0,0,0,0,0,0,0,0,0,3.783,3.7829,3.7824,3.7823,3.7777,3.7777,3.77,3.7699,0,0,0,0,0,0,0,0,0,0,0,3.783,3.7829,3.7828,3.7823,3.7777,3.7777,3.77,3.7741,0,0,0,0,0,0,0,0,0,0,3.7788,3.7786,3.7829,3.7828,3.7822,3.7777,3.7777,3.7743,3.7738,3.7714,0,3.7693,0,3.7695,3.7693,3.7693,0,0,0,3.7828,3.7789,3.7785,3.7828,3.7822,3.7777,3.7799,3.774,3.7735,3.7708,3.7692,3.7689,3.7693,3.7692,3.7692,3.7543,3.7542,0,0,3.7831,3.7816,3.7789,3.7781,3.779,3.78,3.7798,3.7737,3.7718,3.7691,3.7688,3.7692,3.7692,3.7691,3.7544,3.7543,0,0,0,3.7835,3.7817,3.7815,3.7784,3.7777,3.7799,3.7796,3.772,3.7721,3.7687,3.7691,3.7691,3.769,3.7545,3.7543,3.7484,0,0,0,3.7836,3.782,3.7816,3.7806,3.7778,3.7749,3.778,3.7725,3.7719,3.7692,3.7691,3.7689,3.7546,3.7544,3.7488,3.7458,0,0,0,3.7835,3.782,3.781,3.7805,3.7785,3.775,3.7747,3.7724,3.7721,3.7692,3.7689,3.7547,3.7545,3.7492,3.7464,3.7416,0,0,0,3.7829,3.7755,3.7809,3.7729,3.7785,3.7715,3.7748,3.7695,3.7663,3.7691,3.7546,3.7544,3.7493,3.7467,3.7419,3.7373,3.7352,0,0,3.7728,3.7743,3.7697,3.7744,3.766,3.7723,3.763,3.7613,3.7622,3.7568,3.7565,3.7487,3.7464,3.7416,3.7242,3.7225,0,0,0,3.7659,3.7626,3.7607,3.7579,3.7567,3.7554,3.7554,3.7548,3.7504,3.7592,3.7457,3.7444,3.7416,3.7395,3.7381,3.7358,3.7533,3.7533,3.7534,3.7493,3.7512,3.7438,3.7453,3.7424,3.7427,3.7405,3.7397,3.7422,3.739,3.7374,3.7266,3.724,3.7229,3.7206,3.7351,3.735,3.735,3.735,3.7346,3.7303,3.7342,3.7284,3.7305,3.7255,3.7255,3.7275,3.7231,3.7278,3.7255,3.7305,3.7211,3.7191,3.7346,3.7346,3.7347,3.7347,3.7348,3.724,3.7223,3.722,3.7182,3.7151,3.7167,3.7125,3.7144,3.7161,3.7138,3.7124,3.7125,3.7129,3.713,3.713,3.7129,3.7129,3.7129,3.7129,3.713,3.7129,3.7092,3.7076,3.7062,3.7045,3.7049,3.7034,3.7023,3.704,3.704,3.7068,3.7199,3.7231,3.7123,3.7124,3.7125,3.7125,3.7126,3.6974,3.7014,3.6957,3.6943,3.6927,3.6895,3.6922,3.6891,3.6881,3.686,3.6894,3.6988,3.7003,3.7014,3.7041,3.689,3.689,3.689,3.689,3.6884,3.6896,3.6844,3.682,3.6799,3.6819,3.6753,3.6756,3.6764,3.6759,3.6784,3.6822,3.6833,3.6842,3.6857,3.6882,3.6694,3.6694,3.6694,3.679,3.6801,3.6742,3.6755,3.6744,3.6734,3.6674,3.6644,3.6661,3.6686,3.6756,3.6765,3.6826,3.6844,3.687,3.6893,3.694,0,0]}]]